AAL3113 KDFW-KLIT

Flight info

Callsign AAL3113
Flight time 0h 49m
Altitude 31000
Route ZACHH4 BSKAT LIT
Aircraft B38M/M-SDE1FGHILORVWXY/HB1

Departure

Time 2026-05-08 15:37
Airport Dallas Fort Worth International Airport (KDFW)

Arrival

Time 2026-05-08 16:26
Airport Bill & Hillary Clinton National Airport/Adams Field (KLIT)
Time Latitude Longitude Altitude Speed Heading
2026-05-08 15:14 32.90241 -97.04449 598 ft 0 kts 39°
2026-05-08 15:21 32.90234 -97.04456 599 ft 4 kts 39°
2026-05-08 15:21 32.90217 -97.04472 599 ft 3 kts 39°
2026-05-08 15:21 32.90195 -97.04488 599 ft 4 kts 30°
2026-05-08 15:21 32.90187 -97.04495 599 ft 1 kts 37°
2026-05-08 15:31 32.90188 -97.04494 599 ft 1 kts 31°
2026-05-08 15:31 32.90192 -97.04495 599 ft 1 kts
2026-05-08 15:31 32.90197 -97.04499 599 ft 2 kts 322°
2026-05-08 15:32 32.90234 -97.04544 599 ft 12 kts 315°
2026-05-08 15:32 32.90313 -97.04611 599 ft 15 kts 322°
2026-05-08 15:32 32.90334 -97.04731 599 ft 16 kts 270°
2026-05-08 15:32 32.90335 -97.04848 601 ft 8 kts 279°
2026-05-08 15:33 32.90386 -97.04883 601 ft 10 kts 354°
2026-05-08 15:33 32.90464 -97.04884 602 ft 12 kts
2026-05-08 15:33 32.90550 -97.04882 603 ft 13 kts 360°
2026-05-08 15:33 32.90642 -97.04880 611 ft 14 kts
2026-05-08 15:34 32.90740 -97.04879 606 ft 15 kts 359°
2026-05-08 15:34 32.90849 -97.04883 612 ft 16 kts 358°
2026-05-08 15:34 32.90963 -97.04882 618 ft 15 kts 360°
2026-05-08 15:34 32.91011 -97.04925 623 ft 1 kts 284°
2026-05-08 15:35 32.91012 -97.04937 624 ft 2 kts 273°
2026-05-08 15:35 32.91012 -97.04956 622 ft 3 kts 270°
2026-05-08 15:35 32.91012 -97.05001 619 ft 9 kts 270°
2026-05-08 15:35 32.91003 -97.05065 618 ft 7 kts 221°
2026-05-08 15:36 32.90971 -97.05075 617 ft 0 kts 180°
2026-05-08 15:36 32.90951 -97.05076 625 ft 23 kts 181°
2026-05-08 15:36 32.90475 -97.05080 601 ft 111 kts 180°
2026-05-08 15:36 32.89483 -97.05082 675 ft 171 kts 181°
2026-05-08 15:37 32.88189 -97.05098 1378 ft 192 kts 181°
2026-05-08 15:37 32.86882 -97.05213 2581 ft 183 kts 192°
2026-05-08 15:37 32.85658 -97.05550 3551 ft 183 kts 194°
2026-05-08 15:37 32.84265 -97.05561 3899 ft 222 kts 172°
2026-05-08 15:38 32.82740 -97.04743 4211 ft 258 kts 144°
2026-05-08 15:38 32.81601 -97.03029 5010 ft 278 kts 120°
2026-05-08 15:38 32.80714 -97.00940 5816 ft 285 kts 134°
2026-05-08 15:38 32.79214 -96.99454 6855 ft 281 kts 156°
2026-05-08 15:39 32.77468 -96.98361 7768 ft 287 kts 156°
2026-05-08 15:39 32.75846 -96.96905 8625 ft 300 kts 136°
2026-05-08 15:39 32.74807 -96.94731 9492 ft 310 kts 110°
2026-05-08 15:39 32.74701 -96.92164 10297 ft 320 kts 81°
2026-05-08 15:40 32.75396 -96.89578 10796 ft 337 kts 73°
2026-05-08 15:40 32.75935 -96.86809 11361 ft 351 kts 83°
2026-05-08 15:40 32.76352 -96.83891 11970 ft 362 kts 81°
2026-05-08 15:40 32.77006 -96.81026 12699 ft 368 kts 67°
2026-05-08 15:41 32.78353 -96.78465 13551 ft 366 kts 53°
2026-05-08 15:41 32.79806 -96.75956 14317 ft 373 kts 56°
2026-05-08 15:41 32.81202 -96.73308 15015 ft 379 kts 59°
2026-05-08 15:41 32.82552 -96.70590 15757 ft 385 kts 60°
2026-05-08 15:42 32.83888 -96.67803 16435 ft 390 kts 61°
2026-05-08 15:42 32.85222 -96.64969 17133 ft 395 kts 62°
2026-05-08 15:42 32.86561 -96.62094 17825 ft 400 kts 62°
2026-05-08 15:42 32.87908 -96.59176 18473 ft 405 kts 63°
2026-05-08 15:43 32.89267 -96.56220 19044 ft 410 kts 63°
2026-05-08 15:43 32.90644 -96.53222 19590 ft 415 kts 63°
2026-05-08 15:43 32.92034 -96.50195 20163 ft 420 kts 62°
2026-05-08 15:43 32.93444 -96.47125 20706 ft 425 kts 62°
2026-05-08 15:44 32.94867 -96.44019 21215 ft 430 kts 62°
2026-05-08 15:44 32.96308 -96.40872 21713 ft 436 kts 62°
2026-05-08 15:44 32.97749 -96.37722 22248 ft 440 kts 62°
2026-05-08 15:44 32.99237 -96.34463 22752 ft 445 kts 63°
2026-05-08 15:45 33.00379 -96.31065 22961 ft 452 kts 76°
2026-05-08 15:45 33.01110 -96.27402 22973 ft 456 kts 82°
2026-05-08 15:45 33.01741 -96.23682 22984 ft 461 kts 80°
2026-05-08 15:45 33.02611 -96.19994 22993 ft 463 kts 71°
2026-05-08 15:46 33.04025 -96.16560 23002 ft 461 kts 56°
2026-05-08 15:46 33.05840 -96.13418 23107 ft 460 kts 58°
2026-05-08 15:46 33.07423 -96.10099 23014 ft 460 kts 62°
2026-05-08 15:46 33.08882 -96.06693 23001 ft 462 kts 65°
2026-05-08 15:47 33.10250 -96.03214 23021 ft 463 kts 66°
2026-05-08 15:47 33.11564 -95.99698 23024 ft 464 kts 67°
2026-05-08 15:47 33.12850 -95.96171 23023 ft 464 kts 68°
2026-05-08 15:47 33.14119 -95.92633 23023 ft 464 kts 68°
2026-05-08 15:48 33.16635 -95.85537 23021 ft 464 kts 68°
2026-05-08 15:48 33.17879 -95.81981 23028 ft 464 kts 69°
2026-05-08 15:48 33.19117 -95.78419 23026 ft 464 kts 69°
2026-05-08 15:49 33.20354 -95.74863 23025 ft 464 kts 69°
2026-05-08 15:49 33.21594 -95.71300 23025 ft 464 kts 69°
2026-05-08 15:49 33.22816 -95.67785 23034 ft 464 kts 69°
2026-05-08 15:49 33.24053 -95.64224 23023 ft 464 kts 69°
2026-05-08 15:50 33.25289 -95.60661 23045 ft 464 kts 69°
2026-05-08 15:50 33.26525 -95.57093 23045 ft 464 kts 69°
2026-05-08 15:50 33.27760 -95.53524 23042 ft 464 kts 69°
2026-05-08 15:50 33.28992 -95.49960 23040 ft 464 kts 69°
2026-05-08 15:51 33.30227 -95.46386 23033 ft 464 kts 69°
2026-05-08 15:51 33.31458 -95.42817 23045 ft 464 kts 69°
2026-05-08 15:51 33.32688 -95.39248 23026 ft 464 kts 69°
2026-05-08 15:51 33.33913 -95.35678 23030 ft 464 kts 69°
2026-05-08 15:52 33.35139 -95.32106 23021 ft 465 kts 69°
2026-05-08 15:52 33.36370 -95.28523 23030 ft 466 kts 69°
2026-05-08 15:52 33.37602 -95.24932 23033 ft 467 kts 69°
2026-05-08 15:52 33.38836 -95.21332 23029 ft 467 kts 69°
2026-05-08 15:53 33.40051 -95.17780 23038 ft 467 kts 69°
2026-05-08 15:53 33.41280 -95.14185 23033 ft 467 kts 69°
2026-05-08 15:53 33.42508 -95.10592 23032 ft 467 kts 69°
2026-05-08 15:53 33.43738 -95.06986 23036 ft 467 kts 69°
2026-05-08 15:54 33.44964 -95.03388 23035 ft 467 kts 69°
2026-05-08 15:54 33.46194 -94.99774 23032 ft 467 kts 69°
2026-05-08 15:54 33.47421 -94.96166 23031 ft 467 kts 69°
2026-05-08 15:54 33.48645 -94.92561 23042 ft 468 kts 70°
2026-05-08 15:55 33.49872 -94.88944 23037 ft 469 kts 70°
2026-05-08 15:55 33.52309 -94.81747 23035 ft 469 kts 70°
2026-05-08 15:55 33.53535 -94.78121 23033 ft 469 kts 70°
2026-05-08 15:56 33.54758 -94.74499 23032 ft 469 kts 70°
2026-05-08 15:56 33.55983 -94.70866 23035 ft 469 kts 70°
2026-05-08 15:56 33.57207 -94.67232 23038 ft 469 kts 70°
2026-05-08 15:56 33.58434 -94.63599 23049 ft 469 kts 69°
2026-05-08 15:57 33.59657 -94.59969 23040 ft 469 kts 70°
2026-05-08 15:57 33.60872 -94.56341 23058 ft 469 kts 70°
2026-05-08 15:57 33.62094 -94.52698 23040 ft 471 kts 70°
2026-05-08 15:57 33.63315 -94.49053 23045 ft 471 kts 70°
2026-05-08 15:58 33.64521 -94.45447 23048 ft 472 kts 70°
2026-05-08 15:58 33.65741 -94.41795 23040 ft 472 kts 70°
2026-05-08 15:58 33.66959 -94.38147 23040 ft 471 kts 70°
2026-05-08 15:58 33.68179 -94.34491 23050 ft 471 kts 70°
2026-05-08 15:59 33.69399 -94.30830 23035 ft 471 kts 70°
2026-05-08 15:59 33.70616 -94.27176 23043 ft 471 kts 70°
2026-05-08 15:59 33.71850 -94.23536 22933 ft 466 kts 68°
2026-05-08 15:59 33.73221 -94.20068 22877 ft 449 kts 62°
2026-05-08 16:00 33.74776 -94.16919 23068 ft 427 kts 56°
2026-05-08 16:00 33.76371 -94.13997 23092 ft 412 kts 57°
2026-05-08 16:00 33.77829 -94.11099 23058 ft 413 kts 60°
2026-05-08 16:00 33.79224 -94.08014 23018 ft 426 kts 63°
2026-05-08 16:01 33.80540 -94.04783 23033 ft 432 kts 66°
2026-05-08 16:01 33.81781 -94.01480 23038 ft 435 kts 68°
2026-05-08 16:01 33.82990 -93.98125 23041 ft 437 kts 68°
2026-05-08 16:01 33.84209 -93.94779 23048 ft 437 kts 67°
2026-05-08 16:02 33.85450 -93.91475 23047 ft 426 kts 66°
2026-05-08 16:02 33.86698 -93.88312 23060 ft 411 kts 65°
2026-05-08 16:02 33.87946 -93.85208 23060 ft 416 kts 65°
2026-05-08 16:02 33.89159 -93.82034 23019 ft 428 kts 68°
2026-05-08 16:03 33.90316 -93.78711 23056 ft 434 kts 70°
2026-05-08 16:03 33.91412 -93.75307 22836 ft 435 kts 71°
2026-05-08 16:03 33.92477 -93.71894 22914 ft 435 kts 71°
2026-05-08 16:03 33.93529 -93.68461 23076 ft 438 kts 71°
2026-05-08 16:04 33.94587 -93.65009 23078 ft 439 kts 71°
2026-05-08 16:04 33.95682 -93.61578 23042 ft 439 kts 69°
2026-05-08 16:04 33.96868 -93.58192 23047 ft 438 kts 67°
2026-05-08 16:04 33.98161 -93.54860 22971 ft 438 kts 64°
2026-05-08 16:05 33.99561 -93.51659 22721 ft 435 kts 60°
2026-05-08 16:05 34.01112 -93.48541 22300 ft 431 kts 56°
2026-05-08 16:05 34.02817 -93.45587 21890 ft 426 kts 51°
2026-05-08 16:05 34.04721 -93.42891 21511 ft 418 kts 43°
2026-05-08 16:06 34.06824 -93.40509 21070 ft 415 kts 41°
2026-05-08 16:06 34.08724 -93.37825 20352 ft 427 kts 53°
2026-05-08 16:06 34.10380 -93.34796 19551 ft 437 kts 57°
2026-05-08 16:06 34.12050 -93.31709 18796 ft 437 kts 52°
2026-05-08 16:07 34.13857 -93.28841 18384 ft 421 kts 52°
2026-05-08 16:07 34.15536 -93.26009 17930 ft 407 kts 54°
2026-05-08 16:07 34.17102 -93.23220 17531 ft 393 kts 55°
2026-05-08 16:07 34.18577 -93.20503 17135 ft 381 kts 56°
2026-05-08 16:08 34.19972 -93.17892 16758 ft 369 kts 56°
2026-05-08 16:08 34.21330 -93.15323 16422 ft 356 kts 56°
2026-05-08 16:08 34.22643 -93.12820 16073 ft 353 kts 57°
2026-05-08 16:08 34.23972 -93.10281 15670 ft 360 kts 57°
2026-05-08 16:09 34.25320 -93.07699 14969 ft 365 kts 57°
2026-05-08 16:09 34.26233 -93.05951 14587 ft 362 kts 58°
2026-05-08 16:09 34.28005 -93.02555 13749 ft 359 kts 58°
2026-05-08 16:09 34.29333 -93.00006 13058 ft 356 kts 58°
2026-05-08 16:10 34.30668 -92.97491 12373 ft 353 kts 55°
2026-05-08 16:10 34.32214 -92.95234 11797 ft 342 kts 40°
2026-05-08 16:10 34.34134 -92.93701 11379 ft 322 kts 19°
2026-05-08 16:10 34.36223 -92.93063 11045 ft 300 kts
2026-05-08 16:11 34.38213 -92.93134 10584 ft 282 kts 343°
2026-05-08 16:11 34.39943 -92.94068 10097 ft 266 kts 320°
2026-05-08 16:11 34.41099 -92.95701 9704 ft 249 kts 295°
2026-05-08 16:11 34.41462 -92.97659 9572 ft 234 kts 269°
2026-05-08 16:12 34.40999 -92.99527 9557 ft 241 kts 243°
2026-05-08 16:12 34.39807 -93.01052 9609 ft 260 kts 221°
2026-05-08 16:12 34.38090 -93.01884 9590 ft 277 kts 193°
2026-05-08 16:12 34.36154 -93.01554 9575 ft 292 kts 163°
2026-05-08 16:13 34.34509 -93.00067 9583 ft 303 kts 134°
2026-05-08 16:13 34.33597 -92.97762 9582 ft 309 kts 104°
2026-05-08 16:13 34.33523 -92.96046 9586 ft 310 kts 84°
2026-05-08 16:13 34.34643 -92.92913 9625 ft 304 kts 52°
2026-05-08 16:14 34.35479 -92.91558 9701 ft 304 kts 53°
2026-05-08 16:14 34.36691 -92.89453 9684 ft 303 kts 56°
2026-05-08 16:14 34.38194 -92.86653 9341 ft 295 kts 58°
2026-05-08 16:14 34.38920 -92.85241 9069 ft 291 kts 58°
2026-05-08 16:15 34.39963 -92.83168 8652 ft 285 kts 59°
2026-05-08 16:15 34.40973 -92.81131 8248 ft 279 kts 59°
2026-05-08 16:15 34.41956 -92.79125 7849 ft 274 kts 60°
2026-05-08 16:15 34.42905 -92.77177 7463 ft 269 kts 60°
2026-05-08 16:16 34.43846 -92.75236 7075 ft 264 kts 61°
2026-05-08 16:16 34.44769 -92.73330 6699 ft 260 kts 62°
2026-05-08 16:16 34.45668 -92.71444 6349 ft 256 kts 62°
2026-05-08 16:16 34.46558 -92.69593 5992 ft 251 kts 62°
2026-05-08 16:17 34.47425 -92.67794 5637 ft 245 kts 62°
2026-05-08 16:17 34.48267 -92.66051 5301 ft 239 kts 62°
2026-05-08 16:17 34.49094 -92.64330 5012 ft 234 kts 63°
2026-05-08 16:17 34.49857 -92.62609 4767 ft 230 kts 67°
2026-05-08 16:18 34.50612 -92.60894 4381 ft 232 kts 63°
2026-05-08 16:18 34.51354 -92.59188 4090 ft 226 kts 71°
2026-05-08 16:18 34.52015 -92.57468 3698 ft 225 kts 65°
2026-05-08 16:18 34.52845 -92.55890 3448 ft 220 kts 62°
2026-05-08 16:19 34.53673 -92.54344 3142 ft 218 kts 62°
2026-05-08 16:19 34.54479 -92.52799 2792 ft 217 kts 63°
2026-05-08 16:19 34.55254 -92.51208 2473 ft 221 kts 68°
2026-05-08 16:19 34.56029 -92.49607 2311 ft 217 kts 63°
2026-05-08 16:20 34.56819 -92.48072 2291 ft 213 kts 65°
2026-05-08 16:20 34.57569 -92.46524 2283 ft 212 kts 65°
2026-05-08 16:20 34.58220 -92.44929 2352 ft 210 kts 72°
2026-05-08 16:20 34.58841 -92.43333 2292 ft 211 kts 65°
2026-05-08 16:21 34.59630 -92.41833 2409 ft 212 kts 61°
2026-05-08 16:21 34.60425 -92.40319 2405 ft 212 kts 63°
2026-05-08 16:21 34.61174 -92.38843 2312 ft 197 kts 63°
2026-05-08 16:21 34.61851 -92.37470 2231 ft 181 kts 65°
2026-05-08 16:22 34.62466 -92.36193 2230 ft 173 kts 66°
2026-05-08 16:22 34.63070 -92.34933 2275 ft 173 kts 65°
2026-05-08 16:22 34.63662 -92.33669 2303 ft 173 kts 64°
2026-05-08 16:22 34.64228 -92.32399 2377 ft 164 kts 67°
2026-05-08 16:23 34.64752 -92.31269 2341 ft 151 kts 56°
2026-05-08 16:23 34.65476 -92.30366 2110 ft 148 kts 46°
2026-05-08 16:23 34.66209 -92.29476 1930 ft 150 kts 51°
2026-05-08 16:23 34.66909 -92.28541 1810 ft 150 kts 50°
2026-05-08 16:24 34.67605 -92.27594 1719 ft 149 kts 53°
2026-05-08 16:24 34.68307 -92.26665 1524 ft 147 kts 51°
2026-05-08 16:24 34.69038 -92.25771 1263 ft 151 kts 47°
2026-05-08 16:24 34.69777 -92.24881 942 ft 148 kts 49°
2026-05-08 16:25 34.70470 -92.23980 699 ft 146 kts 48°
2026-05-08 16:25 34.71167 -92.23102 519 ft 144 kts 46°
2026-05-08 16:25 34.71865 -92.22209 366 ft 146 kts 47°
2026-05-08 16:25 34.72549 -92.21344 266 ft 132 kts 46°
2026-05-08 16:26 34.73007 -92.20760 265 ft 59 kts 46°
2026-05-08 16:26 34.73203 -92.20541 266 ft 35 kts 32°
2026-05-08 16:26 34.73366 -92.20493 268 ft 18 kts 313°
2026-05-08 16:26 34.73322 -92.20615 269 ft 18 kts 223°
2026-05-08 16:27 34.73227 -92.20732 269 ft 21 kts 225°
2026-05-08 16:27 34.73128 -92.20862 269 ft 22 kts 225°
2026-05-08 16:27 34.73015 -92.21001 268 ft 16 kts 224°
2026-05-08 16:27 34.72932 -92.21105 268 ft 17 kts 226°
2026-05-08 16:28 34.72898 -92.21229 269 ft 17 kts 290°
2026-05-08 16:28 34.72952 -92.21372 269 ft 20 kts 294°
2026-05-08 16:28 34.73012 -92.21534 269 ft 22 kts 293°
2026-05-08 16:28 34.73066 -92.21678 272 ft 15 kts 290°
2026-05-08 16:29 34.73088 -92.21743 270 ft 5 kts 285°
2026-05-08 16:29 34.73066 -92.21791 269 ft 8 kts 207°
2026-05-08 16:29 34.73023 -92.21825 269 ft 0 kts 214°
2026-05-08 16:29 34.73012 -92.21834 269 ft 3 kts 215°
2026-05-08 16:30 34.72985 -92.21859 269 ft 6 kts 229°
2026-05-08 16:30 34.72988 -92.21898 269 ft 4 kts 300°
2026-05-08 16:30 34.73000 -92.21924 269 ft 2 kts 299°
2026-05-08 16:30 34.73001 -92.21926 269 ft 0 kts 300°
2026-05-08 16:31 34.73003 -92.21931 269 ft 1 kts 300°
2026-05-08 16:31 34.73003 -92.21932 269 ft 0 kts 300°